Home > Weather > Al-Jamiliyah > Past weeks

Flag for Qatar Past Weather in Al-Jamiliyah, Qatar — Yesterday and Last 2 Weeks

Now
90 °F

Clear.


Feels Like: 88 °F
Forecast: 84 / 97 °F
Wind: No wind

Location: Doha International Airport

Current Time: May 25, 2016 at 12:47:21 AM

Latest Report: May 25, 2016 at 12:00 AM


Visibility: 10 mi

Pressure: 29.59 "Hg

Humidity: 33%

Dew Point: 57 °F

Location of Al-JamiliyahLocation

Past Weather in Al-Jamiliyah — Graph

°F

Al-Jamiliyah Temperature Yesterday

Maximum temperature yesterday: 113 °F (at 12:00 PM)
Minimum temperature yesterday: 90 °F (at 3:00 AM)
Average temperature yesterday: 97 °F

High & Low Weather Summary for the Past Weeks

 TemperatureHumidityPressure
High113 °F (May 13, 1:00 PM)75% (May 16, 7:00 PM)29.83 "Hg (May 16, 7:00 PM)
Low81 °F (May 17, 4:00 AM)6% (May 13, 12:00 PM)29.56 "Hg (May 19, 3:00 PM)
Average93 °F32%29.69 "Hg
* Reported May 9 11:00 PM — May 24 11:00 PM, Al-Jamiliyah, Weather by CustomWeather, © 2016

Note: Actual official high and low records may vary slightly from our data, if they occured in-between our weather recording intervals... More about our weather records

Advertising

Al-Jamiliyah Weather History for the Previous 24 Hours

Scroll right to see more
 ConditionsComfort  
Time TempWeatherWind HumidityBarometerVisibility
11:00 PM
Tue, May 24
90 °FClear.No wind38%29.59 "Hg10 mi
10:00 PM90 °FClear.5 mph31%29.62 "Hg10 mi
9:00 PM91 °FClear.3 mph28%29.59 "Hg10 mi
8:00 PM91 °FPassing clouds.5 mph34%29.59 "HgN/A
7:00 PM95 °FPassing clouds.3 mph22%29.59 "HgN/A
6:00 PM95 °FPassing clouds.6 mph26%29.59 "HgN/A
5:00 PM100 °FPassing clouds.7 mph16%29.59 "HgN/A
4:00 PM100 °FPassing clouds.8 mph17%29.59 "HgN/A
3:00 PM100 °FSunny.9 mph18%29.59 "Hg10 mi
2:00 PM100 °FSunny.13 mph27%29.62 "Hg10 mi
1:00 PM108 °FSunny.12 mph17%29.62 "Hg10 mi
12:00 PM113 °FPassing clouds.10 mph6%29.62 "HgN/A
11:00 AM111 °FPassing clouds.6 mph7%29.65 "HgN/A
10:00 AM108 °FSunny.2 mph10%29.65 "Hg10 mi
9:00 AM102 °FPassing clouds.5 mph10%29.65 "HgN/A
8:00 AM99 °FPassing clouds.3 mph12%29.65 "HgN/A
7:00 AM97 °FSunny.6 mph12%29.65 "Hg10 mi
6:00 AM93 °FPassing clouds.5 mph12%29.65 "HgN/A
5:00 AM90 °FSunny.No wind15%29.62 "Hg10 mi
4:00 AM90 °FClear.1 mph16%29.62 "Hg10 mi
3:00 AM90 °FClear.6 mph21%29.62 "Hg10 mi
2:00 AM91 °FClear.6 mph26%29.62 "Hg10 mi
1:00 AM91 °FClear.6 mph20%29.62 "Hg10 mi
12:00 AM91 °FPassing clouds.3 mph16%29.65 "HgN/A
Weather by CustomWeather, © 2016

See weather overviewHow to use our weather pages